Presure
163 172 147 160 157 148 148 144 146 153 151 141 159 159 160 144 140 153 143 133 153 152 165 160 161 152 162 159 150 150 151 167 148 152 152 186 201 180 181 238 235 219 205 221 189 209 224
150 158 168 159 162 161 158 158 157 160 154 155 143 156 147 141 154 150 165 168 170 133 152 129 136 162 155 146 161 153 142 145 157 160 154 179 170 184 181 197 198 196 234 236 215 215 190
151 156 151 159 146 168 167 167 175 161 169 171 166 157 161 140 159 138 149 163 163 155 137 168 146 136 138 150 144 162 146 165 157 153 176 155 134 148 160 179 180 182 188 200 199 222 238
144 141 151 155 150 154 158 150 161 152 164 172 167 162 163 153 163 155 146 152 151 144 157 147 160 159 134 135 161 167 154 139 165 148 154 155 154 156 156 160 169 165 181 166 188 195 196
150 153 149 149 151 152 149 166 150 158 179 157 162 156 145 144 146 146 158 146 146 167 151 155 148 149 149 153 151 167 163 151 136 150 146 151 152 179 163 151 173 165 157 173 159 168 166
144 139 149 158 149 145 147 151 159 142 148 154 150 156 149 151 153 147 153 153 161 139 161 148 159 153 159 149 145 155 158 158 168 173 147 159 153 149 159 158 164 184 170 181 168 148 171
139 147 141 145 156 148 150 146 149 157 152 148 151 150 146 146 145 150 159 159 151 148 153 152 148 150 149 158 159 140 155 154 165 174 163 161 143 143 169 153 150 147 142 141 146 165 164
145 148 153 141 142 152 143 149 152 147 139 150 151 150 152 151 154 147 151 151 143 147 148 149 150 143 145 157 156 170 160 164 152 160 168 175 173 150 146 135 139 155 148 148 156 163 177
159 153 147 143 156 143 139 142 146 147 150 157 151 148 153 153 145 143 146 144 142 140 150 151 159 159 145 161 153 161 166 154 153 155 157 159 164 163 163 155 148 157 145 163 173 182 156
164 154 147 146 149 145 149 151 150 138 146 140 145 149 149 148 143 136 137 154 159 158 150 138 161 160 148 154 150 157 152 158 145 157 145 160 159 161 160 166 169 159 163 179 167 155 166
168 158 161 158 154 156 142 145 146 141 152 145 145 147 149 158 145 153 153 152 148 142 142 158 150 153 152 141 156 157 139 162 152 162 150 153 142 160 157 160 167 158 166 151 148 151 166
166 151 151 149 155 159 158 150 147 144 146 147 144 142 144 145 153 155 149 157 155 148 137 155 139 149 163 156 141 165 158 140 156 153 155 156 153 165 162 148 167 162 149 169 173 169 172
168 158 170 153 154 161 163 167 158 146 159 146 148 148 143 143 144 149 154 159 148 141 141 152 151 157 160 157 149 160 158 164 161 157 152 151 166 172 171 155 153 159 168 175 171 169 181
168 160 161 163 147 164 168 166 173 157 158 150 154 150 148 151 152 143 146 158 149 154 153 151 158 155 155 158 148 162 159 159 161 152 148 162 169 165 168 161 164 173 171 171 170 179 179
180 161 146 161 157 166 153 174 180 160 167 156 162 167 143 157 147 148 152 151 150 160 157 158 156 153 154 155 152 155 158 159 153 144 164 167 170 174 173 171 174 170 171 170 170 188 182
162 166 143 157 157 160 160 178 152 172 166 169 163 175 156 170 157 150 151 153 158 157 151 148 149 156 158 152 156 159 159 163 165 164 168 173 171 173 164 176 168 173 164 186 183 181 187
154 161 157 151 177 172 152 163 158 169 157 182 179 169 167 165 167 163 165 165 161 168 161 157 158 161 158 153 163 165 164 163 175 168 160 176 191 186 193 178 168 190 191 189 181 192 212
163 154 165 166 172 155 154 149 171 164 145 174 163 144 174 169 171 168 172 166 161 145 150 151 161 161 166 161 175 171 167 183 175 176 164 183 197 174 176 185 194 186 177 194 188 206 202
172 168 160 166 167 161 161 152 160 163 170 174 168 191 175 178 174 168 172 173 186 177 176 170 174 176 175 173 159 169 176 177 181 195 181 188 186 181 183 182 184 195 192 192 197 196 210
168 179 164 162 150 172 170 162 164 164 169 172 162 174 188 170 177 156 177 176 186 185 172 176 172 177 183 186 196 183 203 196 181 191 196 182 181 181 187 193 188 184 194 217 212 208 209
166 169 176 166 160 171 161 169 182 153 161 177 173 171 154 174 184 178 157 165 166 166 176 169 182 174 194 179 194 197 184 186 192 188 180 183 186 188 187 185 185 196 193 192 208 195 240
163 182 166 179 164 166 158 172 179 154 165 189 176 189 176 161 167 175 182 162 187 166 165 188 178 196 181 196 204 193 199 189 191 188 180 192 186 187 180 210 196 211 194 239 247 234 234
180 171 170 171 183 170 169 161 178 182 166 173 164 169 177 182 167 174 191 190 168 183 165 180 165 181 187 171 178 182 193 192 176 179 176 185 190 205 212 215 194 201 221 228 254 305 305
177 178 174 171 177 179 177 176 174 175 174 172 175 199 173 186 175 177 187 163 194 185 178 187 178 184 188 176 181 199 189 176 196 189 199 180 217 194 202 200 233 252 221 274 296 290 306
183 182 190 176 167 169 168 181 182 189 196 183 192 196 191 184 187 187 181 199 178 193 190 172 177 178 185 185 202 188 208 202 178 206 215 192 202 212 212 204 213 244 249 276 279 285 278
188 190 186 190 175 206 180 161 211 186 191 187 182 193 172 177 173 191 183 200 176 176 177 189 183 179 191 187 198 187 181 223 204 196 189 198 207 239 239 234 232 246 273 267 266 273 276
214 219 214 198 199 200 177 176 174 198 178 182 189 193 193 199 182 201 195 194 180 180 179 180 181 189 182 197 198 203 195 187 199 190 207 247 246 236 220 239 239 237 269 262 267 262 268
239 243 170 192 202 191 189 188 195 179 195 196 185 189 180 204 203 186 185 185 177 186 189 194 185 189 195 196 199 208 215 206 203 222 218 233 236 228 216 234 240 259 266 264 256 264 268
177 217 230 168 195 162 203 196 173 183 194 180 179 186 167 195 183 191 188 190 195 200 202 181 186 197 205 208 208 211 219 241 226 237 243 235 218 224 235 238 234 263 264 267 256 263 270
Wind_Speed
41 43 34 41 40 36 34 31 34 35 32 27 32 24 23 22 23 22 22 23 26 26 22 24 23 28 25 29 27 21 21 26 13 20 5 19 23 17 16 14 10 12 14 15 25 26 26
38 37 42 44 43 43 40 41 37 39 36 35 28 29 24 24 23 22 24 20 20 26 26 23 26 24 26 17 24 29 21 25 16 26 23 19 18 20 17 23 21 12 12 11 17 20 33
38 38 39 38 38 38 38 40 38 35 37 36 36 33 32 27 27 28 24 25 24 23 30 19 29 28 27 29 26 19 29 21 25 26 16 24 30 15 17 16 17 17 18 21 19 17 15
43 43 41 39 40 37 37 36 37 35 37 36 34 35 34 28 31 27 28 25 24 26 20 28 21 25 29 26 24 19 27 27 19 23 26 26 29 29 28 27 16 22 11 19 18 18 22
46 47 45 43 41 40 41 37 38 36 37 34 35 34 31 32 30 31 31 28 28 30 30 23 29 31 32 28 27 26 21 30 30 30 32 31 32 21 25 32 20 25 30 18 31 28 29
50 48 45 47 47 45 43 42 39 40 38 36 35 34 34 34 34 35 34 31 34 31 29 31 29 30 30 32 32 32 31 29 25 27 33 30 32 36 33 35 30 21 26 16 29 39 32
55 51 49 46 50 48 47 45 44 42 41 40 39 39 38 37 38 39 38 35 32 33 35 34 34 36 35 34 32 39 32 33 28 29 31 33 40 40 29 41 41 39 37 35 39 34 38
58 56 55 53 51 51 48 47 46 46 44 43 43 44 43 43 43 38 38 36 37 38 38 38 41 41 41 41 38 36 32 32 36 32 34 35 31 45 43 40 43 41 46 44 43 37 30
61 61 58 55 55 53 51 49 47 46 46 47 47 47 46 47 45 43 41 40 41 42 45 44 45 44 43 44 43 42 41 37 39 40 41 40 39 39 43 52 52 48 51 47 39 39 48
62 64 62 60 59 56 55 53 49 51 50 49 48 50 51 52 50 45 45 50 49 46 46 46 48 47 47 46 46 47 46 45 48 45 48 45 46 46 49 50 48 55 50 54 49 55 46
69 65 66 65 65 62 58 56 54 55 54 52 52 52 55 57 58 58 56 53 50 48 50 51 50 50 50 52 52 52 52 50 52 50 52 50 57 54 54 54 55 56 58 62 61 61 49
71 69 68 69 68 66 64 61 60 58 55 55 57 57 57 60 63 63 60 61 56 54 54 56 55 57 58 56 56 57 57 56 56 57 56 56 58 64 61 64 65 63 65 65 64 63 60
78 73 75 71 72 72 69 69 65 61 63 59 60 61 62 63 65 68 69 69 57 57 59 63 65 66 64 62 63 63 63 64 63 62 63 63 72 76 76 68 70 72 77 77 71 71 73
80 77 75 77 72 76 77 73 73 66 64 62 63 67 66 66 71 70 70 72 65 65 66 64 66 68 68 68 66 73 71 72 73 64 65 78 84 79 82 77 81 85 85 86 80 80 76
76 77 75 81 75 79 70 73 75 68 71 67 70 72 69 72 72 76 75 73 72 72 69 69 67 69 70 70 68 72 77 77 70 68 84 89 89 89 90 89 90 88 91 93 92 89 82
83 84 73 79 77 77 78 82 67 72 70 73 70 75 74 76 78 77 78 78 80 78 72 70 73 78 79 75 78 81 83 86 87 86 90 88 86 89 92 92 92 91 93 95 96 95 94
80 87 84 79 85 87 75 75 72 79 69 78 80 79 76 77 79 80 80 80 82 84 85 86 87 89 86 79 88 90 90 86 91 89 88 91 90 88 87 89 94 97 98 100 100 101 112
94 85 95 92 90 74 75 74 88 77 71 87 79 70 88 84 86 85 86 84 82 79 82 85 91 91 92 90 93 91 92 97 93 88 89 93 86 86 86 95 100 97 95 112 102 123 111
100 100 93 97 93 85 85 75 85 89 88 94 81 88 86 90 90 86 89 87 93 90 90 90 91 93 93 93 88 94 94 91 93 96 89 94 91 90 91 94 101 111 113 116 123 115 113
98 100 97 100 75 94 97 97 96 91 98 98 74 92 97 89 95 80 92 90 95 96 89 93 94 96 99 98 100 91 96 98 93 100 100 95 101 100 109 111 106 105 115 117 115 115 114
105 104 102 103 87 101 86 99 103 78 85 104 97 93 80 90 96 96 80 85 84 83 96 93 101 94 106 95 103 98 99 101 103 105 102 105 109 111 109 110 109 113 108 116 118 117 110
102 107 104 108 103 101 81 103 105 76 93 102 104 101 93 79 81 99 103 80 104 85 91 110 101 106 108 102 99 102 104 104 108 108 106 115 109 107 97 121 125 111 116 113 110 110 112
108 107 108 106 117 109 102 86 108 111 93 103 95 98 107 100 91 91 106 108 89 102 85 108 89 101 108 88 99 105 114 111 99 107 101 112 116 122 115 110 113 113 115 115 103 79 81
109 115 113 111 116 118 114 110 105 110 106 96 106 101 105 105 102 109 106 89 106 112 99 108 99 110 111 104 110 117 115 100 114 107 118 106 117 112 108 109 112 99 116 86 79 74 74
112 117 123 117 108 106 105 116 113 108 106 113 106 101 107 109 108 107 106 102 106 108 106 100 107 108 118 118 118 107 115 118 98 117 116 116 122 121 120 113 114 102 99 87 84 75 74
111 116 119 124 114 113 115 85 94 118 105 113 108 107 96 98 94 109 109 105 108 109 111 116 114 110 119 119 119 107 100 107 115 112 110 119 124 110 111 113 110 98 93 89 86 80 78
117 111 111 113 115 112 110 108 110 106 107 112 112 111 113 106 105 99 104 104 114 117 118 115 117 123 113 121 114 118 115 110 110 108 123 104 105 109 117 111 105 103 96 90 88 84 80
104 89 98 111 111 113 109 113 106 110 111 108 112 113 108 98 102 108 109 115 114 121 123 123 119 124 126 125 123 122 120 123 122 118 119 110 110 111 116 113 107 104 98 93 88 88 84
80 93 87 89 112 84 107 110 104 112 110 108 107 95 84 108 113 112 117 121 122 121 122 110 117 124 124 125 127 126 124 113 115 109 104 109 115 117 113 111 111 108 101 96 90 93 86
Wind_Direction
248 247 260 256 260 264 264 266 273 276 279 274 289 289 294 284 288 303 298 292 312 315 334 331 328 326 338 335 330 320 327 356 313 326 317 24 21 12 14 23 345 298 262 251 262 261 260
252 253 250 254 258 260 262 267 270 273 276 278 274 279 271 277 290 293 305 310 304 301 310 292 304 328 326 309 337 329 303 311 331 340 320 38 2 24 16 16 11 352 352 323 268 250 261
252 250 254 254 261 259 261 264 265 270 270 273 271 278 283 273 287 277 294 308 308 297 295 312 303 300 305 315 311 324 315 337 328 324 12 322 271 278 309 9 5 344 354 346 327 309 303
254 256 257 257 259 259 262 263 266 267 271 271 269 272 276 283 285 291 287 296 294 287 293 292 310 309 292 296 310 319 310 300 322 297 316 315 314 315 313 310 312 300 347 288 357 338 316
257 258 258 257 259 261 263 266 263 269 269 269 270 270 272 273 276 279 292 285 284 308 293 282 288 291 294 302 302 317 297 301 296 306 307 305 306 327 306 305 309 293 297 306 287 286 276
252 249 258 260 259 258 260 264 266 264 265 267 268 270 273 278 281 278 285 288 297 283 298 286 296 286 296 289 292 301 299 295 315 317 297 301 296 297 301 296 287 327 282 302 281 279 288
245 253 249 254 263 260 262 262 264 266 267 268 270 270 270 273 276 280 285 290 287 287 292 288 284 288 285 291 295 289 289 287 304 318 288 291 291 293 281 288 290 289 279 273 286 278 282
245 249 254 248 251 261 259 264 265 268 269 270 272 274 277 277 279 277 283 282 278 284 287 289 289 285 288 294 289 306 294 301 287 297 309 309 298 284 283 278 282 280 285 284 281 276 295
252 250 247 246 259 252 254 258 264 267 269 268 271 274 276 278 272 270 275 275 276 277 285 287 290 291 284 296 292 301 304 292 287 289 291 292 293 287 282 277 280 293 283 287 283 303 275
255 248 248 249 250 250 256 259 261 259 264 263 268 271 271 272 272 269 271 276 278 281 282 280 292 295 285 292 289 295 293 293 282 289 281 294 288 286 283 289 294 277 279 305 281 279 281
259 253 256 256 253 253 251 254 255 256 264 264 268 271 276 278 274 275 275 276 276 277 278 289 285 288 288 281 291 290 280 290 284 291 281 281 279 287 282 284 292 277 285 277 277 277 279
256 250 253 251 255 257 255 255 254 256 258 261 263 265 269 274 280 278 276 279 280 281 278 288 281 286 292 287 284 289 284 283 282 280 282 285 278 299 291 278 294 284 281 293 295 290 290
255 253 256 255 258 261 261 261 256 256 262 261 264 266 267 270 272 276 278 280 278 278 279 287 289 291 292 289 285 291 290 295 291 286 280 281 298 302 301 283 281 287 294 296 293 290 297
251 254 255 257 256 261 262 263 265 261 262 262 264 268 266 271 273 272 275 279 277 280 280 282 286 287 288 292 284 297 294 296 298 283 281 298 302 297 297 293 294 297 296 293 290 296 295
254 253 249 258 257 261 258 265 264 263 266 265 265 268 263 268 268 273 276 278 277 283 281 283 282 282 282 284 283 290 293 294 288 283 299 299 297 296 294 295 295 295 295 293 292 297 295
255 256 254 256 258 259 261 263 262 266 266 269 267 267 267 270 269 272 276 278 282 283 280 278 280 284 287 285 288 291 292 293 294 294 294 294 291 291 290 293 292 292 290 297 296 295 294
253 255 257 257 260 263 258 260 258 267 264 270 270 274 270 269 271 272 275 276 278 280 282 282 284 285 285 288 290 290 289 291 292 290 289 291 294 291 291 288 287 302 302 300 293 300 308
252 254 255 258 259 261 262 256 271 272 259 273 269 263 271 274 274 274 275 274 277 278 279 282 283 284 285 285 288 289 289 292 290 289 287 293 296 285 290 299 302 302 293 306 300 309 308
248 250 257 259 258 262 264 264 268 270 270 272 273 274 272 271 273 273 275 276 277 278 280 280 283 284 286 286 284 288 290 293 292 296 293 299 299 298 301 301 303 307 306 306 305 304 304
250 250 254 259 259 262 264 264 267 269 272 271 274 279 276 276 276 274 278 279 282 282 280 283 283 286 289 292 295 291 294 297 294 299 300 298 302 302 305 306 305 304 305 301 299 300 298
246 249 250 253 262 258 262 263 263 267 271 272 275 276 273 276 276 278 273 278 279 281 286 287 291 289 294 295 297 298 297 299 298 299 301 302 302 303 305 303 302 305 301 300 301 298 297
247 248 251 252 258 259 263 263 262 266 270 274 274 274 274 277 274 280 280 279 282 282 285 288 292 290 292 297 298 299 299 300 300 300 303 301 301 301 299 302 305 303 301 301 297 300 300
244 249 251 254 255 258 261 264 264 264 267 270 270 275 277 278 280 280 280 281 280 286 281 290 286 294 298 292 297 299 299 298 299 300 299 300 303 302 301 301 301 300 302 301 301 302 298
244 245 249 252 253 256 259 263 265 266 266 267 269 269 275 274 276 280 281 283 281 286 286 291 291 293 293 296 297 296 297 296 299 299 300 297 299 300 301 300 305 304 304 308 310 306 302
241 244 246 249 256 259 262 262 263 265 264 267 269 268 270 273 275 277 281 280 284 284 287 288 291 294 295 295 296 296 295 297 295 298 299 301 301 303 304 303 306 306 307 314 314 311 304
243 245 244 246 252 253 255 267 259 264 262 267 270 270 275 277 279 280 281 282 283 285 286 286 289 292 292 294 294 295 295 297 299 301 300 302 303 301 301 304 306 306 314 312 312 313 306
243 244 243 244 247 249 256 259 264 261 265 267 267 269 271 274 277 278 279 279 281 283 286 288 290 289 292 292 293 295 297 297 300 299 301 300 300 302 304 305 307 308 312 309 311 308 307
247 247 248 244 246 248 254 254 256 264 262 263 267 269 273 273 272 276 277 277 283 283 284 285 288 289 290 292 295 296 296 298 300 300 302 302 303 304 303 303 307 310 310 308 306 310 306
249 243 246 252 243 259 249 251 262 261 260 267 268 271 278 271 276 274 276 277 278 280 282 288 289 290 290 291 293 295 297 299 299 301 301 301 303 303 303 306 305 309 309 308 306 308 304